Location: Filler
(36.7551°N, 30.4456°E)
Time: 21:31:01
(UTC+00:00)

NOSS 2-2 (E) - Visible Passes

Search period start: 19 September 2024 00:00
Search period end: 29 September 2024 00:00
Orbit: 399 x 1744 km, 63.3° (Epoch: 18 September)

Date Brightness Start Highest point End Pass type
(mag) Time Alt. Az. Time Alt. Az. Time Alt. Az.
19 Sep 5.5 01:46:13 13° SSE 01:48:02 18° ESE 01:50:18 10° ENE visible
20 Sep 2.9 02:40:54 20° SW 02:43:06 57° WNW 02:46:11 10° NNE visible
21 Sep 4.0 01:48:38 39° ESE 01:48:38 39° ESE 01:51:36 10° NE visible
22 Sep 4.1 02:42:58 22° WNW 02:43:42 24° NW 02:46:20 10° N visible
23 Sep 4.3 01:50:27 33° NNE 01:50:27 33° NNE 01:52:16 10° NNE visible
24 Sep 5.0 02:44:32 12° NW 02:44:32 12° NW 02:45:43 10° NNW visible
25 Sep 5.3 01:51:49 15° N 01:51:49 15° N 01:52:30 10° NNE visible
